Weather Service Report


079 
ASUS46 KSTO 040809
RWRCA 

NORTHERN AND CENTRAL CA REGIONAL WEATHER ROUNDUP
NATIONAL WEATHER SERVICE SACRAMENTO CA 
100 AM PDT WED MAY 04 2016

NOTE: FAIR INDICATES FEW OR NO CLOUDS BELOW 12,000 FEET WITH NO
SIGNIFICANT WEATHER AND/OR OBSTRUCTIONS TO VISIBILITY.

CAZ001-003-040900-
NORTHWEST AREA
  
CITY           SKY/WX    TMP DP  RH WIND       PRES   REMARKS
CRESCENT CITY  LGT RAIN  53  53 100 SE7       29.94F                  
ARCATA         NOT AVBL                                               
SHELTER COVE   NOT AVBL                                               
UKIAH          CLOUDY    61  54  77 CALM      29.90F                  
$$

CAZ006-505>513-040900-
BAY AREA
  
CITY           SKY/WX    TMP DP  RH WIND       PRES   REMARKS
SANTA ROSA     CLOUDY    53  51  93 SE6       29.90F                  
SAN RAFAEL     N/A       60  MM  MM MISG
NAPA           CLOUDY    55  51  86 SW3       29.91S                  
CONCORD        CLOUDY    62  50  64 CALM      29.90S                  
OAKLAND CITY   N/A       57  MM  MM MISG
OAKLAND        CLOUDY    56  50  80 NW13      29.93S                  
SAN FRAN CITY  N/A       53  MM  91 MISG
SAN FRAN ARPT  CLOUDY    52  52 100 W16       29.94S                  
LIVERMORE      CLOUDY    62  46  55 NW6       29.90F                  
HAYWARD        CLOUDY    57  51  80 NW9       29.93R                  
REDWOOD CITY   N/A       MM  MM  MM MISG
MOFFETT ARPT   CLOUDY    58  52  80 N8        29.93S                  
SAN JOSE ARPT  CLOUDY    59  53  80 NW9       29.92F                  
$$
CAZ034-037-514>518-040900-
CENTRAL COAST
  
CITY           SKY/WX    TMP DP  RH WIND       PRES   REMARKS
WATSONVILLE    CLOUDY    54  51  90 E3        29.94S                  
SALINAS        CLOUDY    54  50  86 W7        29.94S                  
MONTEREY       CLOUDY    53  51  93 SW5       29.95F                  
PT PIEDRAS BLS NOT AVBL                                               
SAN LUIS OBISP CLOUDY    55  51  86 E3        29.95F                  
SANTA MARIA    PTCLDY    53  52  96 CALM      29.94F FOG              
$$
CAZ015-016-040900-
NORTHERN SACRAMENTO VALLEY
  
CITY           SKY/WX    TMP DP  RH WIND       PRES   REMARKS
REDDING        MOCLDY    64  52  64 CALM      29.87F                  
RED BLUFF      CLOUDY    61  53  75 N3        29.88S                  
OROVILLE       PTCLDY    64  54  69 CALM      29.88S                  
$$
CAZ016>018-040900-
SOUTHERN SACRAMENTO VALLEY
  
CITY           SKY/WX    TMP DP  RH WIND       PRES   REMARKS
AUBURN         PTCLDY    64  46  52 E7        29.93F                  
BEALE AFB      MOCLDY    60  54  80 CALM      29.85R                  
LINCOLN        FAIR      55  52  88 E6        29.85F                  
MARYSVILLE     MOCLDY    64  56  75 NE3       29.87R                  
SAC INTL ARPT  MOCLDY    64  54  69 SE3       29.84F                  
MATHER AIRPORT NOT AVBL                                               
DOWNTOWN SAC   N/A       64  MM  MM MISG
SAC EXEC ARPT  MOCLDY    61  51  70 E3        29.86F                  
VACAVILLE      CLOUDY    65  53  65 CALM      29.86F                  
TRAVIS AFB     CLOUDY    59  53  79 SW16      29.84F                  
$$
CAZ019>021-040900-
SAN JOAQUIN VALLEY
  
CITY           SKY/WX    TMP DP  RH WIND       PRES   REMARKS
STOCKTON       CLOUDY    63  55  75 MISG      29.87R                  
MODESTO        CLOUDY    68  52  56 N7        29.86S                  
MERCED         MOCLDY    65  55  70 N3        29.86S                  
LEMOORE        PTCLDY    66  49  54 NW9       29.86F                  
FRESNO         MOCLDY    69  55  60 NW10      29.86S                  
HANFORD        PTCLDY    70  53  54 NW12      29.85F                  
PORTERVILLE    PTCLDY    63  47  55 S8        29.88S                  
BAKERSFIELD    PTCLDY    71  41  33 CALM      29.88S                  
$$
CAZ011-012-071-040900-
NORTHERN MOUNTAINS
  
CITY           SKY/WX    TMP DP  RH WIND       PRES   REMARKS
YREKA          CLOUDY    52  48  86 CALM      30.01F                  
MOUNT SHASTA   MOCLDY    47  42  83 CALM      30.02F                  
ALTURAS        CLOUDY    53  43  68 CALM      30.05F                  
$$
CAZ011-012-071-040900-
SIERRA NEVADA MTNS
  
CITY           SKY/WX    TMP DP  RH WIND       PRES   REMARKS
BLUE CANYON    MOCLDY    56  26  31 CALM      30.08S                  
TRUCKEE        MOCLDY    37  37 100 CALM      30.12F                  
TAHOE VLY ARPT PTCLDY    39  36  89 CALM      30.12F                  
MAMMOTH LAKES  FAIR      40  31  69 CALM      30.17S                  
$$
  

Return to Home page


Western Regional Climate Center, wrcc@dri.edu